User: anonymous   Login
Location: Владивосток
(43.1151°N, 131.8856°E)
Time: 11:05:04
(UTC+10:00)
Language:

XW-2C - Orbit

View from above orbital plane
View from above orbital plane
View from above satellite
View from above satellite

Ground track
Ground track

The orbit data is extracted from the following two-line orbital elements,

1 40906U 15049H   22180.52467413  .00004223  00000-0  20360-3 0  9998
2 40906  97.4916 183.8402 0012758 323.8297 155.7951 15.19195595374759
Epoch (UTC): 29 June 2022 12:35:31
Eccentricity: 0.0012758
inclination: 97.4916°
perigee height: 499 km
apogee height: 517 km
right ascension of ascending node: 183.8402°
argument of perigee: 323.8297°
revolutions per day: 15.19195595
mean anomaly at epoch: 155.7951°
orbit number at epoch: 37475

The dashed part of the orbit path shows where the satellite is in the earth's shadow,  

DLR